Lid_Strength_Index
15 15 15 15 14 14 13 13 13 10 9 9 8 8 8 8 8 8 8 8 7 6 5 4 4 3 2
17 16 16 15 15 15 14 12 13 11 10 9 8 8 8 8 8 8 8 8 8 7 6 5 5 4 2
17 16 16 15 15 15 15 14 12 11 10 10 10 10 10 10 10 9 8 8 8 7 7 7 6 5 3
16 15 16 15 15 16 15 15 14 12 11 11 11 11 11 11 10 10 9 9 8 7 8 7 7 6 5
16 16 15 16 15 15 15 15 15 14 14 14 14 14 14 12 12 10 10 9 8 8 8 8 8 7 6
15 16 16 15 15 16 16 16 17 14 15 15 14 15 14 13 11 10 10 9 8 9 9 9 8 8 8
15 15 15 14 14 15 15 15 15 14 14 15 15 15 14 12 11 10 9 9 9 9 10 9 9 8 8
13 13 13 12 12 12 12 13 13 12 13 15 13 14 13 12 10 9 10 10 10 10 10 10 10 9 8
8 7 7 7 7 9 11 13 13 12 11 12 12 12 12 12 10 10 10 10 10 10 10 10 10 10 10
10 9 8 9 6 9 11 13 13 14 10 12 12 11 13 11 10 10 11 10 10 11 11 11 10 12 12
9 9 9 9 9 9 10 11 13 13 9 11 12 12 12 12 11 11 11 11 11 11 10 11 10 11 13
9 9 9 10 9 9 9 9 9 10 8 10 13 13 15 13 13 11 11 11 11 11 12 11 10 11 10
11 10 10 10 9 9 9 9 9 9 8 9 11 12 13 11 12 12 12 11 11 12 11 12 12 12 13
10 10 10 10 11 10 12 11 14 11 9 9 9 11 13 10 10 11 10 12 12 12 12 11 12 12 12
11 11 10 10 11 10 11 12 15 12 11 11 9 10 10 11 12 11 12 12 11 11 12 13 12 12 12
11 11 10 10 10 10 10 12 13 12 12 12 12 14 13 11 8 11 11 12 11 11 11 13 13 12 11
10 10 10 10 10 10 10 10 12 12 13 11 14 15 13 14 11 7 11 11 11 12 11 12 12 12 12